Temp
19 19 19 20 20 21 22 24 25 25 26 26 27 28 28 28 31 30 37 36 35 34 32 33 33 37 36 38 40 36 35 37 36 35 34 36 36 36 37 35 35 35 32 32 31
18 19 19 20 21 21 23 23 24 26 26 26 27 28 28 28 28 36 36 36 34 34 32 36 38 39 38 34 35 37 35 37 38 37 35 36 36 36 35 35 35 35 33 32 31
18 18 19 20 21 21 23 24 24 26 26 27 27 28 28 28 32 39 35 36 35 34 35 38 39 41 39 40 40 40 37 38 38 38 37 36 36 37 36 35 36 34 33 32 32
18 19 19 20 21 22 23 24 24 25 27 27 27 28 28 26 36 35 34 35 34 32 34 38 41 36 40 40 41 39 39 38 38 38 37 36 37 36 37 36 37 35 34 33 33
18 19 20 21 21 22 23 24 26 26 27 27 28 28 28 34 37 35 35 34 32 31 36 39 39 37 39 39 40 40 39 39 38 38 38 38 37 37 37 38 37 36 34 34 34
18 19 20 21 21 22 23 24 26 26 27 27 28 27 27 35 38 36 35 33 35 34 37 41 40 38 39 39 38 41 40 38 38 38 38 37 37 37 37 38 37 36 34 34 34
18 19 19 20 22 23 23 25 26 27 27 27 28 26 33 37 38 38 37 36 36 38 40 41 42 41 36 40 41 41 39 39 38 38 37 38 36 36 37 37 37 36 35 35 35
19 19 20 20 22 23 24 26 26 27 27 27 27 25 34 38 38 38 38 38 38 38 40 41 41 41 31 34 40 39 33 36 38 39 38 38 35 38 37 37 36 36 35 35 35
18 19 20 21 22 23 25 26 26 26 26 27 26 30 36 36 37 38 38 39 39 39 39 40 40 40 34 34 35 32 28 29 36 39 38 32 28 38 37 37 36 36 35 35 35
18 19 20 22 23 24 26 27 26 25 26 24 28 33 36 38 39 38 39 39 40 40 39 40 40 39 41 38 26 29 29 30 29 33 38 30 29 36 37 37 36 36 35 35 35
18 19 21 22 24 24 25 27 30 29 30 35 37 37 39 40 39 39 39 39 41 39 38 40 38 39 40 38 32 31 32 30 30 34 34 35 34 38 37 37 36 36 36 35 35
18 19 20 23 25 25 23 29 33 32 33 37 37 39 40 39 38 39 39 38 39 38 39 39 38 41 42 36 34 36 34 34 36 38 39 39 39 39 38 37 37 37 36 36 36
18 19 20 24 26 26 28 33 32 32 33 36 38 39 39 39 38 39 39 39 39 38 39 38 40 42 42 42 40 40 40 38 33 39 40 38 36 34 38 38 38 38 38 37 36
19 19 20 24 23 29 33 31 32 32 32 37 38 39 39 39 37 40 40 39 39 38 39 40 41 42 41 41 41 40 42 40 40 39 38 37 35 34 31 31 38 38 38 38 37
18 20 20 17 20 31 32 31 31 33 32 38 39 40 40 38 40 39 41 39 38 39 40 39 40 40 40 41 41 40 41 40 41 40 37 35 34 26 26 31 35 38 39 39 38
19 20 19 21 20 27 30 31 32 32 34 38 38 37 37 38 39 40 40 40 40 39 40 40 42 41 41 42 41 42 41 41 40 40 38 40 35 27 25 25 32 39 39 39 39
19 22 19 18 30 29 29 32 32 34 40 39 38 39 38 38 38 39 38 38 37 36 37 39 40 41 42 40 41 41 40 37 37 38 38 42 35 33 30 30 32 34 39 40 40
20 24 23 23 26 28 30 32 31 37 39 41 40 39 37 39 38 39 38 37 38 39 38 38 37 40 41 40 39 40 40 38 36 38 39 40 32 33 32 33 37 41 41 40 40
19 24 27 28 27 28 31 31 34 37 40 39 39 38 38 39 39 39 38 38 39 39 38 39 39 42 41 41 40 39 39 41 39 40 35 36 34 35 36 39 40 42 42 40 40
14 23 29 30 29 30 30 29 35 37 39 38 36 39 38 39 39 39 39 40 40 40 41 40 38 41 42 42 41 40 41 39 39 36 35 36 35 34 33 37 40 42 42 41 41
18 29 31 30 30 31 30 33 36 38 38 36 36 37 39 39 40 39 39 40 41 41 41 40 40 39 41 40 39 39 39 40 40 40 38 35 35 40 35 37 42 43 43 42 41
24 29 31 30 30 32 32 33 31 36 37 36 36 37 37 38 39 40 39 40 42 41 40 40 40 38 39 41 41 41 40 40 39 38 40 40 37 41 40 43 43 43 43 43 42
22 28 31 31 29 32 34 35 35 35 35 35 36 37 37 37 37 39 40 42 42 41 40 40 38 37 38 40 41 39 40 40 40 40 39 38 40 40 41 40 42 43 43 41 41
23 29 32 32 32 31 31 32 32 34 35 34 35 36 36 37 38 38 39 41 41 40 33 38 39 38 38 39 40 39 39 40 40 39 39 40 40 38 37 39 42 43 42 42 40
24 29 28 28 30 30 31 30 31 31 34 34 34 34 34 34 36 37 39 40 40 32 38 39 37 39 40 41 41 40 40 39 39 40 39 40 41 42 41 41 42 42 42 40 40
23 23 24 24 27 28 27 29 30 31 32 32 32 33 34 34 35 33 34 35 34 38 38 39 37 38 38 40 40 39 40 40 40 40 40 40 40 42 42 42 42 42 41 40 39
20 20 22 22 26 28 29 30 30 31 32 32 32 32 32 33 32 32 33 33 35 36 38 38 38 37 36 39 39 38 39 40 40 40 40 39 41 42 42 41 41 41 41 41 39
Height
790 787 783 780 776 773 770 766 762 759 756 753 751 748 745 741 737 735 728 724 727 728 730 729 726 720 719 711 699 707 738 743 749 757 758 738 745 740 742 751 755 756 767 775 785
790 786 782 778 774 771 767 765 761 757 754 752 749 746 743 739 735 729 726 724 725 726 729 721 716 713 715 725 718 719 745 740 726 735 748 742 743 747 754 756 758 758 769 778 786
790 786 781 777 773 769 764 762 759 755 751 749 746 744 742 739 734 716 720 722 724 724 721 714 707 702 714 706 706 708 736 725 730 731 734 743 747 743 753 764 756 767 771 778 784
789 785 780 776 772 767 762 759 756 753 749 746 744 742 740 741 745 717 719 721 723 724 723 712 703 721 713 714 701 725 718 724 730 730 736 744 741 747 745 749 748 759 769 775 781
788 783 779 775 771 766 761 756 752 750 747 745 742 740 740 734 720 717 718 720 723 725 720 711 713 726 721 713 714 720 723 725 727 731 731 734 743 746 745 738 744 756 767 772 776
787 782 777 772 768 763 758 754 750 747 745 743 741 739 740 738 714 716 719 719 721 722 717 706 708 706 712 714 725 711 720 729 729 732 735 741 743 744 745 739 744 755 764 768 771
787 782 776 770 765 761 755 751 747 744 743 741 739 738 733 721 713 715 716 717 718 716 710 704 703 703 709 716 702 711 736 733 733 734 743 736 760 756 741 741 747 755 760 764 768
785 780 774 768 762 757 752 747 744 742 741 740 739 741 727 710 712 713 713 713 715 713 710 706 707 703 726 717 712 727 752 763 738 736 740 741 773 742 740 746 751 754 758 761 764
785 778 772 765 759 753 747 743 741 740 740 739 739 735 723 709 710 709 710 708 710 710 709 709 709 710 731 742 749 767 802 790 755 730 741 763 789 738 737 745 752 753 756 759 762
783 776 769 763 756 749 742 739 737 738 738 739 736 736 710 706 699 704 706 706 705 708 710 711 714 720 708 724 812 798 800 794 797 755 735 773 777 744 737 741 748 750 753 756 759
782 775 767 759 752 747 740 737 736 737 733 718 710 709 696 696 700 703 703 704 702 709 728 712 731 734 712 717 750 758 778 788 781 741 750 749 752 733 734 738 744 746 750 754 756
781 773 764 756 750 746 743 737 731 734 731 707 702 698 694 695 706 702 702 711 711 727 715 723 734 706 693 731 740 737 757 754 726 716 724 729 728 711 725 733 735 740 744 749 753
779 771 763 754 747 744 740 733 734 731 731 703 693 694 695 699 705 698 698 704 713 722 718 727 710 694 698 702 719 718 719 734 754 719 714 731 745 749 726 727 729 730 732 739 747
777 770 763 752 751 742 734 736 734 731 743 706 696 690 689 694 707 687 689 701 710 721 713 713 693 698 706 709 708 729 697 712 722 729 751 730 776 754 762 761 732 729 729 732 740
776 769 762 759 752 741 738 737 735 730 766 692 690 680 682 698 685 691 682 695 714 712 708 718 706 706 712 708 701 718 702 711 710 721 737 747 771 798 780 769 748 730 723 723 729
772 767 760 756 752 744 741 738 734 752 750 698 686 698 701 697 689 682 689 688 691 705 700 705 682 692 698 693 696 692 704 707 711 720 749 712 745 802 804 790 763 721 717 716 720
768 761 758 756 741 743 742 736 752 749 681 695 694 690 698 704 698 695 706 712 720 737 732 711 707 688 685 707 697 703 721 754 758 752 750 693 743 756 760 745 730 726 710 708 711
762 754 749 747 746 745 741 744 763 707 692 668 679 684 705 693 698 695 708 718 703 705 716 729 738 705 689 706 717 712 720 748 772 751 732 706 776 768 734 711 702 689 691 698 705
759 751 745 740 742 743 742 752 733 704 681 683 682 697 696 688 689 693 702 707 696 695 720 716 716 675 682 686 700 715 726 704 725 710 750 752 750 736 727 706 687 684 684 694 699
762 750 736 736 740 739 744 748 713 691 682 689 711 688 703 689 693 692 695 684 688 678 679 694 718 681 674 678 686 704 692 728 720 760 769 758 756 762 742 713 692 684 682 686 693
761 741 731 735 737 737 747 728 706 683 682 703 706 699 687 687 679 689 689 675 670 674 669 684 695 699 679 698 707 708 717 708 704 712 743 765 760 696 711 706 684 678 676 679 685
760 746 730 734 741 729 732 718 708 696 686 696 696 694 693 680 680 678 686 672 654 663 684 676 691 708 701 678 675 686 700 704 725 736 713 715 737 685 690 676 672 675 673 671 676
769 745 727 731 746 727 711 706 699 701 703 703 700 692 684 688 697 675 669 648 648 664 678 676 700 720 707 685 676 697 693 690 695 700 718 730 715 669 678 683 673 671 669 674 676
772 748 724 723 722 728 727 719 716 697 700 700 700 690 690 690 677 683 670 651 651 660 674 670 684 699 715 693 676 695 692 690 694 713 716 709 699 691 702 691 673 667 666 669 676
770 748 748 751 731 731 728 730 729 723 703 696 705 704 704 708 693 687 669 660 658 671 668 676 700 685 676 670 670 675 683 688 697 692 707 697 694 678 675 673 674 669 670 673 679
778 778 768 762 747 742 739 735 733 723 717 716 714 705 699 707 697 706 694 683 687 664 672 670 701 688 693 673 668 685 677 676 685 686 685 684 690 661 659 661 668 670 673 676 680
789 789 781 767 754 745 734 726 723 715 712 709 712 709 710 700 699 697 693 690 682 681 670 676 686 695 708 678 676 698 681 673 675 675 680 699 680 663 667 668 668 669 670 671 673
Wind_Speed
25 25 25 26 26 25 23 22 21 21 19 18 17 15 16 19 18 9 9 5 7 13 13 14 20 17 17 18 13 6 4 9 14 12 8 5 13 15 16 13 16 11 21 27 29
26 26 27 27 27 26 24 23 22 22 20 19 16 14 15 19 16 16 10 9 8 12 14 19 19 16 13 11 11 13 3 13 13 16 12 13 12 13 12 12 10 21 23 28 28
26 27 28 28 28 27 25 24 25 21 22 18 15 13 13 16 9 8 14 11 11 13 19 22 26 15 8 8 5 13 10 14 13 14 15 12 13 13 13 11 14 22 23 23 26
27 27 28 28 28 28 26 26 25 23 20 17 15 13 12 5 5 6 9 12 11 12 15 25 15 1 11 3 10 16 15 15 12 13 13 13 17 14 13 17 17 20 22 20 21
28 29 29 28 27 27 27 27 24 23 19 15 12 11 6 8 14 7 6 13 12 12 18 20 6 13 13 19 5 16 16 13 15 13 13 14 12 13 5 14 19 22 20 20 19
29 32 31 30 28 27 27 26 24 20 16 12 10 9 5 14 6 6 9 13 15 17 19 19 5 17 11 18 13 13 17 14 13 13 12 11 12 10 8 8 19 20 19 18 18
31 34 34 31 29 27 28 24 21 17 11 9 7 3 11 14 3 7 11 13 18 19 20 12 10 14 13 14 11 13 12 12 12 13 7 11 8 11 12 11 16 18 18 18 17
34 37 36 34 30 27 26 23 17 13 8 5 3 4 8 4 7 9 13 15 17 21 18 14 8 15 12 17 8 14 8 6 12 12 8 7 10 10 13 13 15 17 16 16 17
36 39 38 34 32 28 26 18 16 12 7 6 6 9 15 8 12 17 17 19 17 18 16 14 10 17 11 18 3 13 6 19 9 13 17 9 11 14 15 15 15 16 16 16 15
39 42 40 37 33 28 23 16 13 8 8 8 15 9 15 14 14 15 19 18 14 13 14 14 12 15 16 8 4 5 2 12 17 9 16 17 17 16 16 17 16 16 17 16 16
40 44 42 39 30 23 22 4 4 5 12 14 3 13 7 5 6 9 17 18 15 15 16 17 13 16 18 21 29 27 19 19 32 16 18 25 24 19 18 16 17 17 17 17 17
42 45 44 39 25 13 13 7 7 7 10 16 20 18 10 3 10 12 17 15 17 19 19 18 17 21 15 28 27 24 32 23 25 22 13 13 16 20 21 18 18 18 18 18 18
41 44 45 35 20 9 10 9 7 11 7 16 21 19 17 11 14 15 19 20 17 19 20 20 21 18 20 11 9 15 13 8 15 13 12 6 19 7 3 17 16 17 19 19 19
40 41 44 33 9 13 7 5 8 9 6 12 12 10 17 14 17 20 22 19 21 20 21 20 22 16 17 12 7 15 9 9 11 5 8 4 7 4 13 19 16 18 18 20 20
39 39 39 18 15 7 11 11 10 9 6 10 10 6 10 18 5 18 21 16 22 21 18 19 22 19 14 10 13 16 2 10 11 9 6 11 4 7 12 11 20 18 19 19 21
40 36 34 5 7 11 14 12 11 6 9 10 10 10 15 17 19 13 11 16 20 21 19 19 21 17 21 14 16 16 14 13 13 12 13 20 15 7 8 26 23 19 19 19 22
43 35 28 12 5 12 11 8 6 8 3 6 8 13 16 16 20 12 15 18 17 15 18 19 21 21 14 20 16 18 12 11 11 12 13 19 12 10 19 13 23 23 19 19 20
43 31 12 13 10 10 9 7 9 12 14 7 2 17 14 17 18 16 14 15 19 20 16 16 16 22 14 17 17 20 14 13 16 14 7 15 7 4 24 24 20 23 21 19 20
39 15 9 6 7 7 7 10 12 15 10 8 7 12 16 16 12 17 19 18 19 20 19 14 20 17 27 18 20 22 16 20 23 23 3 10 7 4 18 20 16 15 22 19 19
25 16 18 6 3 7 7 15 21 22 8 8 13 9 14 16 19 16 18 18 19 21 19 21 14 12 17 21 21 22 18 16 13 20 13 8 2 7 22 23 12 13 16 18 20
8 5 9 4 5 6 10 16 19 17 5 8 16 18 17 17 17 15 18 16 19 19 21 17 18 13 12 10 16 13 17 21 18 14 15 7 9 8 24 25 7 12 10 20 21
8 5 7 4 7 8 12 19 21 17 12 8 16 19 19 20 17 16 17 14 12 14 14 12 12 13 13 13 17 20 20 21 13 16 15 14 10 8 11 13 9 4 10 14 19
7 8 11 5 8 11 16 21 18 12 13 18 16 17 18 19 18 21 14 15 11 13 12 15 12 12 15 17 15 17 18 17 19 19 19 14 12 8 2 9 15 3 11 12 12
5 5 3 4 8 13 16 17 16 10 15 14 18 19 18 17 18 18 16 11 11 10 4 5 11 15 14 13 16 19 18 19 22 14 17 18 17 9 12 21 11 3 14 15 11
4 5 10 7 11 15 13 16 17 16 19 10 12 14 18 18 16 19 19 15 15 11 6 10 16 17 18 15 11 9 19 17 22 21 18 18 16 12 13 12 7 9 7 14 9
6 6 11 14 18 16 14 14 16 17 18 18 17 15 15 16 21 17 17 16 16 17 15 15 15 18 19 17 13 6 15 14 18 20 18 17 12 9 6 5 7 3 5 11 11
16 15 7 9 13 14 13 14 14 14 10 14 15 17 16 9 20 18 18 18 19 20 14 19 16 16 16 17 14 9 12 14 17 20 15 15 12 10 7 3 8 4 3 7 16
Wind_Direction
356 354 353 351 349 346 345 342 339 337 336 334 331 328 323 318 312 287 257 152 181 165 173 199 228 233 235 252 262 182 296 111 116 131 138 151 144 111 108 126 151 121 142 147 147
355 353 350 348 347 343 341 341 337 333 332 330 327 324 321 320 311 262 218 189 172 177 184 213 212 215 235 90 296 117 164 76 86 118 136 149 124 124 139 154 116 124 123 139 152
354 351 348 346 343 341 338 336 335 331 329 326 323 318 315 322 272 236 186 184 191 205 226 249 235 212 193 139 215 75 88 108 112 122 139 142 131 160 139 139 143 131 144 152 154
352 350 347 344 342 338 333 331 331 329 327 324 318 309 305 305 248 110 178 181 193 209 252 267 251 3 312 127 69 111 111 101 121 132 131 149 154 161 183 140 133 140 151 158 165
352 350 346 342 340 336 330 328 327 326 325 322 317 304 307 233 257 136 173 192 193 205 246 266 73 320 237 64 251 117 116 127 129 151 139 148 166 147 172 147 146 146 158 165 173
355 353 347 342 339 333 327 326 323 322 323 320 309 289 251 253 103 136 158 182 203 210 246 263 145 212 287 115 242 129 126 134 154 154 144 160 142 172 145 185 149 155 167 173 180
354 352 348 343 337 330 324 322 318 316 319 321 311 247 265 250 172 196 193 207 215 217 246 258 301 305 34 147 215 107 126 153 154 157 175 136 136 227 157 162 160 167 173 176 186
353 350 347 344 335 327 321 317 309 303 304 302 293 240 260 206 227 228 215 210 219 240 258 304 303 284 94 285 239 188 42 165 156 177 148 209 167 170 163 168 169 171 178 179 185
351 350 346 343 336 326 318 311 299 284 274 280 279 223 263 173 228 224 219 215 208 231 248 265 283 268 155 223 49 46 119 266 227 194 145 86 304 159 172 178 176 177 178 183 186
350 348 345 341 335 325 317 308 291 272 267 253 265 265 232 224 203 202 214 220 212 220 234 238 246 251 245 217 103 299 5 241 270 249 159 153 230 228 181 183 180 184 180 187 187
348 347 344 340 334 327 322 337 210 196 231 241 188 236 135 186 103 209 198 214 217 217 222 224 241 241 244 141 174 197 210 212 237 212 230 181 203 173 183 191 182 187 186 190 193
347 346 343 340 332 315 304 275 45 331 293 257 247 248 265 168 204 217 201 206 212 214 220 236 223 247 256 131 189 199 203 231 191 188 205 197 229 171 173 195 191 192 188 193 190
344 345 342 339 329 286 255 317 326 325 267 273 227 227 226 206 243 200 201 208 213 223 221 231 233 232 263 215 192 230 264 137 148 226 217 130 252 204 151 187 207 198 195 190 190
342 342 340 335 314 329 283 349 312 320 279 235 182 217 211 208 233 253 186 213 231 222 228 233 247 227 236 250 224 252 258 181 200 241 223 184 263 355 14 325 206 209 205 188 190
338 338 336 328 304 297 349 319 321 276 291 138 139 119 202 194 219 205 188 208 229 229 229 237 243 254 262 246 230 268 289 274 286 244 179 199 188 304 355 300 269 223 209 201 182
335 334 332 351 266 273 311 304 283 238 259 157 138 194 203 209 234 182 193 210 228 240 241 250 260 225 251 233 258 257 260 229 251 271 268 259 168 185 180 222 275 210 222 203 185
332 328 317 282 290 323 314 276 237 246 64 209 183 178 208 194 229 156 200 200 220 223 237 234 246 261 227 247 230 248 257 262 251 234 245 250 83 175 176 185 236 255 195 201 199
329 324 297 242 273 290 279 244 249 266 251 95 323 168 198 209 218 172 204 213 219 226 233 221 219 235 228 237 251 237 227 243 249 245 268 9 104 149 199 201 227 205 179 192 191
330 322 252 233 242 258 244 228 241 247 317 346 212 264 197 211 210 203 200 215 214 222 244 241 221 208 215 207 221 248 216 243 266 280 90 263 81 116 241 233 207 191 160 176 184
325 300 259 154 211 224 241 251 274 303 331 306 289 240 255 209 211 224 208 220 228 214 222 259 278 291 195 210 206 228 254 241 233 263 282 289 88 216 219 229 225 167 162 163 178
287 270 108 192 225 238 242 256 258 273 228 279 270 279 262 256 207 217 249 220 213 239 215 229 256 243 200 193 227 211 237 255 272 267 254 198 253 207 192 224 159 154 172 162 172
308 281 114 264 244 239 250 253 267 292 312 274 274 283 291 293 276 221 233 229 186 219 204 223 251 254 190 227 225 240 218 234 248 257 272 278 113 134 207 297 161 228 131 155 160
301 289 278 229 261 253 256 255 257 277 280 281 272 262 277 277 281 290 212 238 167 207 196 210 230 258 267 204 189 216 243 248 234 254 266 274 262 117 134 289 288 210 129 120 152
284 305 213 218 252 282 293 300 317 312 274 279 297 299 276 270 272 277 268 200 148 196 41 323 257 219 243 237 199 196 210 227 247 230 241 257 270 126 136 272 285 272 148 148 166
251 343 357 298 324 343 327 318 304 298 297 282 273 268 280 284 269 263 270 268 173 157 194 239 250 270 262 277 269 207 198 210 239 244 246 234 249 245 183 172 87 83 84 128 162
340 347 337 300 289 280 271 268 268 276 265 272 287 273 279 256 262 331 340 331 327 168 206 217 239 264 278 286 265 226 258 200 221 243 261 271 281 312 33 95 155 168 150 155 167
359 335 307 295 299 295 282 283 297 315 273 300 292 293 287 316 336 322 304 297 288 293 216 212 227 237 249 247 270 211 246 241 202 219 236 251 262 278 305 20 55 49 277 223 169